This is the latest recevied weather packets stored in our database for station/object KP4OZ. If no packets are shown the sender has not sent any weather packets the latest 10 day(s).
| Time | Temp. | Humidity | Pressure | Rain* | Wind** | Luminosity | Snow |
|---|---|---|---|---|---|---|---|
| 1777322769 | 29.44° C | 74% | 1014.9 hPa | 0 mm | - | - | - |
| 1777322466 | 29.44° C | 74% | 1014.9 hPa | 0 mm | - | - | - |
| 1777322163 | 28.89° C | 75% | 1014.9 hPa | 0 mm | - | - | - |
| 1777321860 | 27.78° C | 77% | 1014.7 hPa | 0 mm | - | - | - |
| 1777321556 | 27.78° C | 78% | 1015.1 hPa | 0 mm | - | - | - |
| 1777321254 | 27.78° C | 78% | 1014.9 hPa | 0 mm | - | - | - |
| 1777320951 | 27.22° C | 79% | 1014.7 hPa | 0 mm | - | - | - |
| 1777320649 | 27.22° C | 78% | 1014.6 hPa | 0 mm | - | - | - |
| 1777320345 | 27.78° C | 77% | 1014.7 hPa | 0 mm | - | - | - |
| 1777320042 | 27.22° C | 79% | 1014.9 hPa | 0 mm | - | - | - |
| 1777319739 | 27.22° C | 79% | 1014.9 hPa | 0 mm | - | - | - |
| 1777319436 | 26.67° C | 79% | 1014.7 hPa | 0 mm | - | - | - |
| 1777319133 | 26.67° C | 80% | 1014.8 hPa | 0 mm | - | - | - |
| 1777318830 | 26.67° C | 81% | 1014.9 hPa | 0 mm | - | - | - |
| 1777318526 | 26.67° C | 80% | 1015.2 hPa | 0 mm | - | - | - |
| 1777318223 | 26.67° C | 81% | 1015.1 hPa | 0 mm | - | - | - |
| 1777317920 | 26.11° C | 82% | 1015.1 hPa | 0 mm | - | - | - |
| 1777317617 | 26.67° C | 82% | 1015 hPa | 0 mm | - | - | - |
| 1777317315 | 26.67° C | 82% | 1015.1 hPa | 0 mm | - | - | - |
| 1777317009 | 26.67° C | 81% | 1015.3 hPa | 0 mm | - | - | - |
| 1777316708 | 26.67° C | 80% | 1015.3 hPa | 0 mm | - | - | - |
| 1777316403 | 26.67° C | 81% | 1015.3 hPa | 0 mm | - | - | - |
| 1777316100 | 26.67° C | 82% | 1015.4 hPa | 0 mm | - | - | - |
| 1777315799 | 26.67° C | 83% | 1015.4 hPa | 0 mm | - | - | - |
| 1777315497 | 26.11° C | 85% | 1015.5 hPa | 0 mm | - | - | - |
* Rain latest hour (hover to see other rain measurements)
** Current wind speed in m/s (hover to see current wind gust speed)